TimeCDT,TemperatureF,Dew PointF,Humidity,Sea Level PressureIn,VisibilityMPH,Wind Direction,Wind SpeedMPH,Gust SpeedMPH,PrecipitationIn,Events,Conditions,WindDirDegrees,DateUTC
12:15 AM,71.6,64.8,79,30.09,10.0,SE,5.8,-,N/A,,Clear,130,2013-03-30 05:15:00
12:55 AM,70.7,64.9,82,30.09,10.0,SE,4.6,-,N/A,,Clear,130,2013-03-30 05:55:00
1:35 AM,70.5,65.1,83,30.08,10.0,SE,5.8,-,N/A,,Clear,130,2013-03-30 06:35:00
1:55 AM,69.8,64.9,84,30.08,10.0,SE,5.8,-,N/A,,Scattered Clouds,130,2013-03-30 06:55:00
2:15 AM,68.0,64.0,87,30.07,10.0,East,3.5,-,N/A,,Scattered Clouds,100,2013-03-30 07:15:00
2:35 AM,67.1,63.7,89,30.07,10.0,Calm,Calm,-,N/A,,Scattered Clouds,0,2013-03-30 07:35:00
2:55 AM,66.2,63.5,91,30.06,10.0,Calm,Calm,-,N/A,,Mostly Cloudy,0,2013-03-30 07:55:00
3:15 AM,65.5,63.0,92,30.05,10.0,East,3.5,-,N/A,,Scattered Clouds,90,2013-03-30 08:15:00
3:35 AM,64.8,62.6,93,30.05,10.0,East,3.5,-,N/A,,Scattered Clouds,80,2013-03-30 08:35:00
3:55 AM,64.6,62.6,93,30.04,10.0,Calm,Calm,-,N/A,,Mostly Cloudy,0,2013-03-30 08:55:00
4:15 AM,64.4,62.6,94,30.03,7.0,Calm,Calm,-,N/A,,Scattered Clouds,0,2013-03-30 09:15:00
4:35 AM,64.4,62.6,94,30.03,7.0,Calm,Calm,-,N/A,,Mostly Cloudy,0,2013-03-30 09:35:00
4:55 AM,64.4,62.8,94,30.03,7.0,Calm,Calm,-,N/A,,Overcast,0,2013-03-30 09:55:00
5:15 AM,64.4,62.6,94,30.03,7.0,East,3.5,-,N/A,,Mostly Cloudy,90,2013-03-30 10:15:00
5:35 AM,64.6,62.8,94,30.03,7.0,East,3.5,-,N/A,,Mostly Cloudy,100,2013-03-30 10:35:00
5:55 AM,64.6,63.0,94,30.03,7.0,Calm,Calm,-,N/A,,Mostly Cloudy,0,2013-03-30 10:55:00
6:15 AM,64.9,63.5,95,30.04,7.0,ESE,3.5,-,N/A,,Overcast,110,2013-03-30 11:15:00
6:35 AM,65.5,63.7,94,30.04,7.0,ESE,3.5,-,N/A,,Overcast,110,2013-03-30 11:35:00
6:55 AM,66.2,64.0,93,30.04,7.0,ESE,4.6,-,N/A,,Overcast,110,2013-03-30 11:55:00
7:15 AM,66.2,63.9,92,30.04,7.0,ESE,5.8,-,N/A,,Overcast,110,2013-03-30 12:15:00
7:35 AM,67.1,64.4,91,30.04,10.0,ESE,4.6,-,N/A,,Overcast,120,2013-03-30 12:35:00
7:55 AM,67.8,64.8,90,30.05,7.0,ESE,5.8,-,N/A,,Overcast,110,2013-03-30 12:55:00
8:15 AM,68.4,65.3,90,30.06,10.0,SE,3.5,-,N/A,,Overcast,130,2013-03-30 13:15:00
8:35 AM,69.1,65.3,88,30.07,10.0,SSE,4.6,-,N/A,,Overcast,150,2013-03-30 13:35:00
8:55 AM,69.4,65.5,87,30.06,10.0,ESE,4.6,-,N/A,,Overcast,120,2013-03-30 13:55:00
9:15 AM,70.0,65.7,86,30.07,10.0,South,6.9,-,N/A,,Overcast,170,2013-03-30 14:15:00
9:35 AM,71.1,66.2,85,30.07,10.0,SE,5.8,-,N/A,,Overcast,130,2013-03-30 14:35:00
9:55 AM,73.0,66.6,80,30.07,10.0,SSE,6.9,-,N/A,,Overcast,160,2013-03-30 14:55:00
10:15 AM,74.3,67.1,78,30.07,10.0,SE,4.6,-,N/A,,Overcast,130,2013-03-30 15:15:00
10:35 AM,76.5,66.6,71,30.07,10.0,South,10.4,-,N/A,,Overcast,180,2013-03-30 15:35:00
10:55 AM,77.0,66.2,69,30.07,10.0,South,9.2,-,N/A,,Overcast,170,2013-03-30 15:55:00
11:15 AM,77.7,66.4,68,30.06,10.0,SSE,10.4,-,N/A,,Overcast,160,2013-03-30 16:15:00
11:35 AM,79.3,66.2,64,30.06,10.0,SSE,10.4,-,N/A,,Overcast,150,2013-03-30 16:35:00
11:55 AM,80.2,64.8,59,30.05,10.0,SSE,11.5,16.1,N/A,,Mostly Cloudy,150,2013-03-30 16:55:00
12:15 PM,80.6,64.4,58,30.04,10.0,SSE,8.1,-,N/A,,Mostly Cloudy,150,2013-03-30 17:15:00
12:35 PM,82.6,63.9,53,30.03,10.0,South,10.4,17.3,N/A,,Mostly Cloudy,170,2013-03-30 17:35:00
12:55 PM,83.5,62.8,50,30.03,10.0,SSE,12.7,16.1,N/A,,Mostly Cloudy,160,2013-03-30 17:55:00
1:15 PM,84.4,62.6,48,30.01,10.0,South,8.1,19.6,N/A,,Scattered Clouds,170,2013-03-30 18:15:00
1:35 PM,84.2,62.4,48,30.01,10.0,SSE,11.5,-,N/A,,Mostly Cloudy,150,2013-03-30 18:35:00
1:55 PM,85.3,61.9,45,29.99,10.0,SSE,10.4,-,N/A,,Mostly Cloudy,160,2013-03-30 18:55:00
2:15 PM,86.2,61.3,43,29.98,10.0,SSW,6.9,16.1,N/A,,Scattered Clouds,200,2013-03-30 19:15:00
2:35 PM,87.3,61.0,41,29.97,10.0,South,11.5,16.1,N/A,,Mostly Cloudy,180,2013-03-30 19:35:00
2:55 PM,88.3,60.6,39,29.96,10.0,SE,10.4,-,N/A,,Mostly Cloudy,140,2013-03-30 19:55:00
3:15 PM,88.3,60.3,39,29.95,10.0,SSE,9.2,-,N/A,,Overcast,160,2013-03-30 20:15:00
3:35 PM,88.7,59.4,37,29.94,10.0,South,9.2,-,N/A,,Mostly Cloudy,190,2013-03-30 20:35:00
3:55 PM,90.3,58.5,34,29.93,10.0,SSE,8.1,-,N/A,,Scattered Clouds,160,2013-03-30 20:55:00
4:15 PM,90.5,58.8,34,29.92,10.0,SSE,8.1,-,N/A,,Scattered Clouds,160,2013-03-30 21:15:00
4:35 PM,91.2,58.6,33,29.91,10.0,SSE,15.0,19.6,N/A,,Mostly Cloudy,160,2013-03-30 21:35:00
4:55 PM,89.8,58.5,35,29.90,10.0,SSE,9.2,-,N/A,,Scattered Clouds,160,2013-03-30 21:55:00
5:15 PM,90.1,58.5,34,29.90,10.0,SE,9.2,-,N/A,,Clear,140,2013-03-30 22:15:00
5:35 PM,88.2,65.3,47,29.89,10.0,ESE,13.8,19.6,N/A,,Mostly Cloudy,110,2013-03-30 22:35:00
5:55 PM,88.0,66.0,48,29.89,10.0,ESE,12.7,19.6,N/A,,Mostly Cloudy,120,2013-03-30 22:55:00
6:15 PM,87.1,66.6,50,29.89,10.0,ESE,15.0,20.7,N/A,,Scattered Clouds,110,2013-03-30 23:15:00
6:35 PM,86.9,66.9,51,29.89,10.0,East,13.8,-,N/A,,Scattered Clouds,100,2013-03-30 23:35:00
6:55 PM,85.6,67.1,54,29.89,10.0,ESE,15.0,21.9,N/A,,Scattered Clouds,110,2013-03-30 23:55:00
7:15 PM,84.4,67.5,57,29.89,10.0,ESE,17.3,20.7,N/A,,Clear,110,2013-03-31 00:15:00
7:35 PM,83.3,67.6,59,29.90,10.0,ESE,10.4,17.3,N/A,,Scattered Clouds,110,2013-03-31 00:35:00
7:55 PM,81.9,68.0,63,29.90,10.0,ESE,9.2,-,N/A,,Scattered Clouds,110,2013-03-31 00:55:00
8:15 PM,80.6,68.0,65,29.90,10.0,ESE,8.1,-,N/A,,Mostly Cloudy,110,2013-03-31 01:15:00
8:35 PM,79.7,68.2,68,29.91,10.0,ESE,11.5,-,N/A,,Scattered Clouds,120,2013-03-31 01:35:00
8:55 PM,79.7,68.0,67,29.91,10.0,SE,13.8,19.6,N/A,,Clear,130,2013-03-31 01:55:00
9:15 PM,78.4,68.0,70,29.92,10.0,SE,11.5,17.3,N/A,,Clear,130,2013-03-31 02:15:00
9:35 PM,77.7,68.0,72,29.93,10.0,SE,10.4,-,N/A,,Clear,130,2013-03-31 02:35:00
9:55 PM,77.0,68.0,74,29.93,10.0,SE,11.5,-,N/A,,Scattered Clouds,130,2013-03-31 02:55:00
10:35 PM,76.1,67.3,74,29.95,7.0,SSE,10.4,-,N/A,,Clear,150,2013-03-31 03:35:00
10:55 PM,75.7,67.3,75,29.95,10.0,SSE,11.5,-,N/A,,Scattered Clouds,150,2013-03-31 03:55:00
11:15 PM,75.2,67.3,76,29.96,10.0,SSE,9.2,-,N/A,,Clear,150,2013-03-31 04:15:00
11:35 PM,74.5,67.1,78,29.96,10.0,SSE,8.1,-,N/A,,Clear,150,2013-03-31 04:35:00
11:55 PM,74.3,67.1,78,29.96,10.0,SE,8.1,-,N/A,,Clear,140,2013-03-31 04:55:00